This is the latest recevied weather packets stored in our database for station/object OK2JF-6. If no packets are shown the sender has not sent any weather packets the latest 10 day(s).
| Time | Temp. | Humidity | Pressure | Rain* | Wind** | Luminosity | Snow |
|---|---|---|---|---|---|---|---|
| 1777795443 | 21.67° C | 39% | 1090.8 hPa | 0 mm | - | 374 W/m² | - |
| 1777794723 | 21.67° C | 39% | 1091 hPa | 0 mm | - | 351 W/m² | - |
| 1777794663 | 21.11° C | 40% | 1091.1 hPa | 0 mm | - | 348 W/m² | - |
| 1777794603 | 21.11° C | 40% | 1090.7 hPa | 0 mm | - | 349 W/m² | - |
| 1777794483 | 21.11° C | 41% | 1090.9 hPa | 0 mm | - | 345 W/m² | - |
| 1777794303 | 21.11° C | 40% | 1091.1 hPa | 0 mm | - | 326 W/m² | - |
| 1777794243 | 21.11° C | 40% | 1091 hPa | 0 mm | - | 329 W/m² | - |
| 1777794123 | 21.11° C | 40% | 1091 hPa | 0 mm | - | 328 W/m² | - |
| 1777793343 | 20.56° C | 41% | 1091 hPa | 0 mm | - | 314 W/m² | - |
| 1777792923 | 20.56° C | 42% | 1091 hPa | 0 mm | - | 185 W/m² | - |
| 1777792683 | 20° C | 42% | 1090.9 hPa | 0 mm | - | 297 W/m² | - |
| 1777792623 | 20° C | 42% | 1090.7 hPa | 0 mm | - | 295 W/m² | - |
| 1777792263 | 20° C | 43% | 1090.9 hPa | 0 mm | - | 286 W/m² | - |
| 1777791783 | 19.44° C | 44% | 1090.8 hPa | 0 mm | - | 271 W/m² | - |
| 1777791723 | 19.44° C | 44% | 1090.8 hPa | 0 mm | - | 269 W/m² | - |
| 1777791363 | 18.89° C | 47% | 1090.6 hPa | 0 mm | - | 259 W/m² | - |
| 1777791063 | 17.78° C | 49% | 1090.9 hPa | 0 mm | - | 249 W/m² | - |
| 1777790943 | 17.22° C | 49% | 1090.9 hPa | 0 mm | - | 245 W/m² | - |
| 1777790823 | 17.22° C | 49% | 1090.9 hPa | 0 mm | - | 241 W/m² | - |
| 1777790763 | 17.22° C | 49% | 1090.9 hPa | 0 mm | - | 240 W/m² | - |
| 1777790403 | 16.67° C | 49% | 1090.8 hPa | 0 mm | - | 228 W/m² | - |
| 1777790118 | 16.11° C | 52% | 1090.7 hPa | 0 mm | - | 220 W/m² | - |
| 1777789383 | 14.44° C | 56% | 1090.8 hPa | 0 mm | - | 198 W/m² | - |
| 1777788439 | 13.33° C | 59% | 1090.2 hPa | 0 mm | - | 170 W/m² | - |
| 1777788063 | 12.78° C | 59% | 1090.2 hPa | 0 mm | - | 161 W/m² | - |
* Rain latest hour (hover to see other rain measurements)
** Current wind speed in m/s (hover to see current wind gust speed)